Content
SEND FEEDBACK

Daily
Averages
Monthly
Summary
Ireland

DUBLIN, IRELAND


Home > Europe > Ireland
Elevation: 279 feet     Latitude: 53 26N     Longitude: 006 15W

WEATHER
 
SELECT A DAY
Number of Records: 331,934;   Date Range: 7/1/96 - 11/26/14
 
SHARE

PRINT THIS DATA

[ ← Previous Day ]
WEATHER ALMANAC - APRIL 25, 2014
[ Next Day → ]
[ °C ]   °F
Weather ElementAverageHighLow
Temperature50 °F59 °F (12:30 pm)39 °F (6:00 am)
Dewpoint44.3 °F47 °F (9:00 am)39 °F (5:00 am)
Humidity79.9 %100 % (2:00 am)55 % (2:00 pm)
Barometer29.86 in30.04 in (12:00 am)29.56 in (11:30 pm)
Wind Speed10.3 mph17.3 mph (11:30 pm)
Weather ElementAverage
Visibility8.4 mi
Wind DirectionESE (99.2 °)

Weather ElementTotal
Precipitation---
Heating Degree Days16 (Base 65)
Averaged from 71 records on April 25, 2014
WEATHER CONDITIONS BREAKOUT
WIND DIRECTION BREAKOUT
WEATHER BY HOUR - APRIL 25, 2014
[ °C ]   °F
Local TimeTemperatureDewpointHumidityBarometerVisibilityWind DirectionWind SpeedGust SpeedPrecipitationEventsConditions
12:00 AM46.4 °F44.6 °F93 %30.04 in5.6 miEast (100°)5.8 mphMostly Cloudy
12:30 AM46.4 °F44.6 °F93 %30.04 in5.6 miEast (100°)6.9 mphMostly Cloudy
1:00 AM46.0 °F45.0 °F95 %30.04 in9.0 miNE (50°)4.5 mphRainLight Rain Showers
1:00 AM46.4 °F44.6 °F93 %30.01 in6.2 miNE (50°)4.6 mphMostly Cloudy
1:30 AM46.4 °F44.6 °F93 %30.01 in6.2 miEast (100°)4.6 mphMostly Cloudy
2:00 AM45.0 °F44.0 °F93 %30.03 in12.0 miEast (100°)4.5 mphPartly Cloudy
2:00 AM44.6 °F44.6 °F100 %30.01 in6.2 miEast (100°)3.5 mphMostly Cloudy
2:30 AM44.6 °F42.8 °F93 %30.01 in6.2 miVariable3.5 mphMostly Cloudy
3:00 AM44.6 °F42.8 °F93 %30.01 in6.2 miEast (90°)4.6 mphMostly Cloudy
3:00 AM44.0 °F43.0 °F95 %30.02 in19.0 miEast (100°)4.5 mphScattered Clouds
3:30 AM46.4 °F42.8 °F87 %30.01 in6.2 miVariable3.5 mphMostly Cloudy
4:00 AM42.0 °F41.0 °F94 %30.01 in19.0 miEast (90°)4.5 mphMostly Cloudy
4:00 AM42.8 °F41.0 °F93 %29.98 in6.2 miEast (100°)4.6 mphMostly Cloudy
4:30 AM41.0 °F41.0 °F100 %29.98 in6.2 miENE (70°)5.8 mphMostly Cloudy
5:00 AM40.0 °F39.0 °F93 %29.99 in19.0 miNorth4.5 mphPartly Cloudy
5:00 AM39.2 °F39.2 °F100 %29.98 in6.2 miNorth (360°)3.5 mphMostly Cloudy
5:30 AM41.0 °F39.2 °F93 %29.95 in6.2 miNNE (30°)3.5 mphScattered Clouds
6:00 AM39.2 °F39.2 °F100 %29.95 in6.2 miENE (70°)5.8 mphScattered Clouds
6:00 AM39.0 °F39.0 °F99 %29.98 in16.0 miEast (80°)6.7 mphScattered Clouds
6:30 AM39.2 °F39.2 °F100 %29.95 in6.2 miEast (90°)5.8 mphScattered Clouds
7:00 AM40.0 °F40.0 °F100 %29.98 in16.0 miEast (90°)4.5 mphScattered Clouds
7:00 AM39.2 °F39.2 °F100 %29.95 in6.2 miEast (90°)4.6 mphPartly Cloudy
7:30 AM46.4 °F44.6 °F93 %29.95 in6.2 miEast (100°)4.6 mphPartly Cloudy
8:00 AM49.0 °F46.0 °F87 %29.96 in19.0 miEast (100°)6.7 mphScattered Clouds
8:00 AM48.2 °F46.4 °F93 %29.95 in6.2 miEast (100°)4.6 mphScattered Clouds
8:30 AM50.0 °F46.4 °F87 %29.95 in6.2 miEast (80°)6.9 mphScattered Clouds
9:00 AM51.8 °F46.4 °F82 %29.92 in6.2 miEast (100°)6.9 mphPartly Cloudy
9:00 AM51.0 °F47.0 °F80 %29.95 in16.0 miESE (110°)6.7 mphScattered Clouds
9:30 AM53.6 °F44.6 °F72 %29.95 in6.2 miSE (130°)8.1 mphPartly Cloudy
10:00 AM55.0 °F44.0 °F58 %29.94 in16.0 miESE (110°)8.9 mphScattered Clouds
10:00 AM55.4 °F44.6 °F67 %29.92 in6.2 miESE (110°)8.1 mphPartly Cloudy
10:30 AM55.4 °F44.6 °F67 %29.92 in6.2 miEast (100°)8.1 mphPartly Cloudy
11:00 AM56.0 °F45.0 °F56 %29.93 in16.0 miEast (90°)11.2 mphScattered Clouds
11:00 AM57.2 °F46.4 °F67 %29.92 in6.2 miEast (90°)11.5 mphScattered Clouds
11:30 AM57.2 °F44.6 °F63 %29.92 in6.2 miEast (90°)11.5 mphScattered Clouds
12:00 PM55.4 °F42.8 °F63 %29.89 in6.2 miESE (110°)12.7 mphScattered Clouds
12:00 PM56.0 °F45.0 °F57 %29.91 in16.0 miESE (120°)13.4 mphScattered Clouds
12:30 PM59.0 °F44.6 °F59 %29.89 in6.2 miEast (90°)13.8 mphScattered Clouds
1:00 PM57.0 °F46.0 °F56 %29.89 in19.0 miEast (90°)15.7 mphScattered Clouds
1:00 PM57.2 °F44.6 °F63 %29.89 in6.2 miEast (90°)15.0 mphScattered Clouds
1:30 PM57.2 °F44.6 °F63 %29.89 in6.2 miESE (110°)13.8 mphScattered Clouds
2:00 PM57.0 °F45.0 °F55 %29.88 in19.0 miESE (120°)13.4 mphScattered Clouds
2:00 PM57.2 °F46.4 °F67 %29.86 in6.2 miESE (120°)13.8 mphScattered Clouds
2:30 PM57.2 °F46.4 °F67 %29.86 in6.2 miESE (110°)15.0 mphPartly Cloudy
3:00 PM55.4 °F44.6 °F67 %29.86 in6.2 miSE (130°)11.5 mphPartly Cloudy
3:00 PM56.0 °F44.0 °F55 %29.86 in19.0 miSE (130°)13.4 mphScattered Clouds
3:30 PM57.2 °F44.6 °F63 %29.83 in6.2 miESE (120°)12.7 mphPartly Cloudy
4:00 PM56.0 °F45.0 °F58 %29.82 in7.0 miESE (120°)15.7 mphScattered Clouds
4:00 PM55.4 °F44.6 °F67 %29.80 in6.2 miESE (120°)15.0 mphScattered Clouds
4:30 PM55.4 °F46.4 °F72 %29.80 in6.2 miESE (120°)15.0 mphScattered Clouds
5:00 PM54.0 °F46.0 °F67 %29.80 in7.0 miESE (120°)13.4 mphPartly Cloudy
5:00 PM55.4 °F46.4 °F72 %29.77 in6.2 miESE (110°)13.8 mphScattered Clouds
5:30 PM53.6 °F46.4 °F77 %29.77 in6.2 miESE (110°)13.8 mphScattered Clouds
6:00 PM53.6 °F46.4 °F77 %29.74 in6.2 miESE (120°)16.1 mphScattered Clouds
6:00 PM53.0 °F46.0 °F71 %29.76 in7.0 miESE (120°)15.7 mphScattered Clouds
6:30 PM51.8 °F46.4 °F82 %29.74 in6.2 miESE (120°)15.0 mphMostly Cloudy
7:00 PM51.0 °F45.0 °F73 %29.74 in6.0 miESE (120°)15.7 mphMist
7:00 PM51.8 °F44.6 °F76 %29.71 in5.6 miESE (120°)15.0 mphMostly Cloudy
7:30 PM51.8 °F44.6 °F76 %29.71 in5.6 miEast (90°)11.5 mphMostly Cloudy
8:00 PM51.0 °F44.0 °F71 %29.70 in5.0 miEast (100°)13.4 mphMist
8:00 PM50.0 °F44.6 °F82 %29.68 in5.0 miEast (100°)12.7 mphMostly Cloudy
8:30 PM50.0 °F46.4 °F87 %29.68 in5.0 miEast (100°)12.7 mphMostly Cloudy
9:00 PM51.8 °F44.6 °F76 %29.65 in6.2 miEast (100°)16.1 mphMostly Cloudy
9:00 PM52.0 °F44.0 °F65 %29.67 in9.0 miEast (100°)15.7 mphOvercast
9:30 PM50.0 °F44.6 °F82 %29.65 in6.2 miEast (100°)16.1 mphMostly Cloudy
10:00 PM49.0 °F46.0 °F84 %29.64 in9.0 miEast (90°)15.7 mphMostly Cloudy
10:00 PM50.0 °F46.4 °F87 %29.62 in6.2 miEast (90°)13.8 mphMostly Cloudy
10:30 PM48.2 °F46.4 °F93 %29.59 in5.0 miEast (90°)16.1 mphMostly Cloudy
11:00 PM49.0 °F46.0 °F84 %29.60 in5.0 miEast (90°)15.7 mphMist
11:00 PM48.2 °F46.4 °F93 %29.59 in5.0 miEast (90°)16.1 mphMostly Cloudy
11:30 PM48.2 °F46.4 °F93 %29.56 in5.0 miEast (90°)17.3 mphMostly Cloudy
Hourly data recorded from EIDW, located miles away from Dublin, Ireland







STORIES FROM OUR PARTNERS